TimePST,TemperatureF,Dew PointF,Humidity,Sea Level PressureIn,VisibilityMPH,Wind Direction,Wind SpeedMPH,Gust SpeedMPH,PrecipitationIn,Events,Conditions,WindDirDegrees,DateUTC
12:15 AM,41.0,26.6,57,30.20,10.0,SW,11.5,-,N/A,,Clear,220,2012-11-20 08:15:00
12:35 AM,41.0,26.6,57,30.20,10.0,SSW,8.1,-,N/A,,Clear,210,2012-11-20 08:35:00
4:15 AM,41.0,23.0,49,30.15,10.0,SW,13.8,18.4,N/A,,Clear,230,2012-11-20 12:15:00
4:35 AM,41.0,21.2,45,30.14,10.0,SSW,16.1,19.6,N/A,,Clear,210,2012-11-20 12:35:00
4:55 AM,41.0,21.2,45,30.14,10.0,SSW,13.8,21.9,N/A,,Clear,200,2012-11-20 12:55:00
5:15 AM,41.0,21.2,45,30.14,10.0,SW,12.7,20.7,N/A,,Clear,220,2012-11-20 13:15:00
5:35 AM,39.2,21.2,49,30.15,10.0,SW,10.4,16.1,N/A,,Clear,220,2012-11-20 13:35:00
6:55 AM,39.2,21.2,49,30.16,10.0,SW,17.3,21.9,N/A,,Mostly Cloudy,230,2012-11-20 14:55:00
7:45 AM,41.0,24.8,53,30.16,10.0,SSW,16.1,32.2,N/A,,Mostly Cloudy,210,2012-11-20 15:45:00
8:45 AM,42.8,30.2,61,30.16,10.0,SW,15.0,27.6,N/A,,Mostly Cloudy,230,2012-11-20 16:45:00
9:50 AM,42.8,32.0,66,30.16,10.0,SSW,12.7,26.5,N/A,,Mostly Cloudy,200,2012-11-20 17:50:00
10:55 AM,44.6,32.0,61,30.13,10.0,South,16.1,29.9,N/A,,Mostly Cloudy,190,2012-11-20 18:55:00
11:45 AM,44.6,32.0,61,30.11,10.0,SSE,13.8,23.0,N/A,,Mostly Cloudy,160,2012-11-20 19:45:00
12:55 PM,44.6,32.0,61,30.09,10.0,SSE,19.6,27.6,N/A,,Mostly Cloudy,160,2012-11-20 20:55:00
1:45 PM,46.4,32.0,57,30.07,10.0,SSE,17.3,32.2,N/A,,Mostly Cloudy,150,2012-11-20 21:45:00
2:45 PM,46.4,32.0,57,30.07,10.0,SSE,19.6,28.8,N/A,,Mostly Cloudy,160,2012-11-20 22:45:00
3:45 PM,46.4,30.2,53,30.07,10.0,SSE,18.4,29.9,N/A,,Mostly Cloudy,160,2012-11-20 23:45:00
4:45 PM,44.6,30.2,57,30.07,10.0,SSE,11.5,28.8,N/A,,Mostly Cloudy,160,2012-11-21 00:45:00
4:55 PM,44.6,30.2,57,30.06,10.0,South,11.5,19.6,N/A,,Overcast,180,2012-11-21 00:55:00
5:15 PM,42.8,30.2,61,30.06,10.0,South,11.5,16.1,N/A,,Overcast,180,2012-11-21 01:15:00
5:35 PM,42.8,30.2,61,30.06,10.0,South,12.7,23.0,N/A,,Mostly Cloudy,180,2012-11-21 01:35:00
5:55 PM,42.8,30.2,61,30.07,10.0,South,12.7,21.9,N/A,,Overcast,180,2012-11-21 01:55:00
6:15 PM,42.8,30.2,61,30.07,10.0,South,13.8,26.5,N/A,,Overcast,170,2012-11-21 02:15:00
6:35 PM,42.8,30.2,61,30.06,10.0,South,21.9,34.5,N/A,,Mostly Cloudy,180,2012-11-21 02:35:00
6:55 PM,42.8,30.2,61,30.06,10.0,South,19.6,29.9,N/A,,Mostly Cloudy,180,2012-11-21 02:55:00
7:15 PM,42.8,30.2,61,30.06,10.0,South,16.1,28.8,N/A,,Overcast,170,2012-11-21 03:15:00
7:35 PM,42.8,30.2,61,30.05,10.0,SSE,18.4,26.5,N/A,,Overcast,150,2012-11-21 03:35:00
7:55 PM,42.8,30.2,61,30.06,10.0,South,11.5,28.8,N/A,,Overcast,180,2012-11-21 03:55:00
8:15 PM,42.8,30.2,61,30.07,10.0,South,15.0,26.5,N/A,,Mostly Cloudy,170,2012-11-21 04:15:00
8:35 PM,42.8,28.4,57,30.06,10.0,SSE,16.1,31.1,N/A,,Overcast,150,2012-11-21 04:35:00
8:55 PM,42.8,28.4,57,30.04,10.0,SSE,17.3,24.2,N/A,,Overcast,160,2012-11-21 04:55:00
9:15 PM,42.8,28.4,57,30.05,10.0,South,13.8,24.2,N/A,,Overcast,170,2012-11-21 05:15:00
9:35 PM,41.0,32.0,70,30.06,10.0,South,18.4,26.5,N/A,,Overcast,170,2012-11-21 05:35:00
9:55 PM,39.2,32.0,75,30.06,9.0,South,16.1,23.0,N/A,,Overcast,170,2012-11-21 05:55:00
10:15 PM,39.2,32.0,75,30.05,10.0,SSE,15.0,26.5,N/A,,Overcast,150,2012-11-21 06:15:00
10:35 PM,39.2,32.0,75,30.05,6.0,SSE,16.1,26.5,N/A,Rain,Light Rain,150,2012-11-21 06:35:00
10:55 PM,39.2,33.8,81,30.04,6.0,SSE,12.7,24.2,N/A,Rain,Light Rain,160,2012-11-21 06:55:00
11:15 PM,39.2,33.8,81,30.05,5.0,South,15.0,26.5,0.01,Rain,Light Rain,180,2012-11-21 07:15:00
11:35 PM,39.2,33.8,81,30.05,5.0,South,18.4,27.6,0.02,Rain,Light Rain,170,2012-11-21 07:35:00
11:55 PM,39.2,33.8,81,30.04,9.0,SSE,21.9,28.8,0.02,,Overcast,150,2012-11-21 07:55:00